Location: Dittelspoint
(48.7198°N, 10.7214°E)
Time: 10:51:04
(UTC+00:00)

CZ-2C R/B - Pass Details

Date: 09 April 2020
Orbit: 785 x 870 km, 98.3° (Epoch: 25 May)

Event Time Altitude Azimuth Distance (km) Brightness Sun altitude
Rises 19:16:06 0° 18° (NNE) 3,289 5.9 -12.5°
Reaches altitude 10° 19:18:30 10° 23° (NNE) 2,356 5.1 -12.9°
Maximum altitude 19:23:33 51° 99° (E) 990 2.7 -13.6°
Drops below altitude 10° 19:28:36 10° 176° (S) 2,360 4.7 -14.3°
Sets 19:31:00 0° 181° (S) 3,295 5.5 -14.6°
